Temp
-6 -8 -8 -10 -10 -10 -9 -9 -10 -10 -9 -10 -9 -10 -9 -8 -8 -8 -8 -8 -9 -9 -9 -9 -9 -8 -9 -9 -9 -9 -9 -10 -9 -9 -9 -10 -10 -10 -10 -11 -11 -11 -11 -12
-6 -7 -9 -10 -10 -10 -10 -9 -9 -10 -10 -10 -9 -9 -9 -8 -7 -8 -8 -8 -8 -9 -9 -9 -9 -9 -10 -9 -10 -9 -9 -10 -9 -9 -10 -10 -10 -11 -11 -11 -11 -11 -11 -12
-6 -7 -9 -9 -10 -10 -10 -9 -9 -10 -10 -9 -9 -9 -10 -9 -9 -8 -8 -7 -8 -9 -9 -9 -10 -10 -10 -10 -10 -10 -10 -10 -10 -10 -10 -10 -10 -11 -11 -11 -11 -11 -11 -12
-7 -8 -9 -9 -10 -10 -9 -10 -10 -9 -10 -9 -9 -7 -9 -9 -9 -9 -8 -8 -9 -9 -9 -9 -9 -10 -10 -9 -10 -10 -9 -10 -10 -10 -10 -10 -11 -11 -11 -11 -11 -11 -12 -12
-7 -7 -8 -9 -8 -10 -10 -10 -10 -10 -10 -10 -8 -9 -8 -8 -9 -8 -9 -8 -8 -8 -9 -8 -9 -9 -9 -9 -10 -10 -9 -10 -10 -10 -10 -11 -11 -11 -11 -11 -11 -12 -12 -12
-7 -8 -8 -9 -9 -10 -10 -10 -10 -10 -9 -8 -9 -10 -7 -8 -8 -8 -9 -8 -7 -9 -9 -9 -9 -9 -9 -9 -9 -10 -9 -10 -10 -10 -11 -11 -11 -11 -11 -11 -12 -12 -12 -13
-7 -7 -8 -8 -8 -10 -10 -10 -10 -10 -9 -8 -9 -10 -8 -8 -8 -8 -9 -8 -9 -9 -9 -9 -9 -9 -8 -9 -10 -10 -10 -10 -10 -10 -10 -10 -10 -11 -11 -12 -12 -12 -12 -13
-7 -7 -7 -7 -7 -9 -10 -10 -10 -9 -10 -8 -9 -9 -9 -8 -8 -9 -8 -9 -9 -9 -9 -9 -8 -8 -8 -9 -9 -9 -10 -10 -10 -11 -10 -10 -11 -11 -11 -12 -12 -12 -13 -13
-7 -7 -7 -8 -8 -8 -9 -9 -9 -10 -8 -8 -8 -8 -8 -8 -9 -9 -9 -9 -9 -9 -9 -9 -8 -8 -8 -9 -9 -10 -10 -10 -10 -10 -10 -11 -11 -11 -12 -12 -12 -13 -13 -13
-8 -8 -8 -8 -8 -9 -9 -9 -9 -9 -8 -8 -7 -7 -7 -8 -9 -9 -9 -9 -9 -9 -9 -8 -8 -8 -9 -9 -9 -10 -10 -10 -10 -10 -11 -11 -11 -11 -12 -12 -12 -13 -13 -13
-8 -8 -8 -8 -8 -8 -8 -8 -9 -9 -9 -8 -7 -7 -8 -8 -8 -9 -9 -9 -9 -9 -9 -9 -9 -9 -9 -9 -9 -10 -10 -10 -10 -10 -11 -11 -11 -12 -12 -12 -12 -13 -13 -13
-9 -8 -9 -8 -9 -9 -9 -9 -9 -9 -8 -9 -8 -7 -9 -8 -8 -9 -9 -9 -9 -9 -9 -9 -9 -9 -8 -9 -9 -10 -10 -10 -10 -11 -11 -11 -12 -12 -12 -13 -13 -13 -13 -13
-9 -8 -9 -9 -9 -9 -9 -9 -9 -10 -9 -8 -9 -8 -9 -9 -10 -10 -10 -9 -9 -9 -9 -9 -9 -9 -9 -9 -9 -9 -10 -10 -10 -11 -11 -11 -12 -12 -12 -13 -13 -13 -13 -13
-11 -10 -9 -9 -9 -9 -9 -10 -10 -10 -9 -8 -9 -10 -10 -10 -10 -10 -10 -10 -10 -10 -9 -9 -9 -9 -9 -9 -9 -9 -10 -10 -11 -11 -11 -11 -12 -12 -12 -13 -13 -13 -13 -14
-11 -11 -10 -9 -9 -10 -10 -10 -9 -10 -9 -9 -8 -9 -9 -10 -10 -10 -10 -11 -10 -10 -10 -9 -10 -9 -9 -9 -9 -9 -10 -11 -11 -11 -11 -11 -12 -12 -12 -13 -13 -13 -14 -14
-11 -11 -11 -10 -10 -10 -10 -10 -10 -10 -10 -9 -9 -9 -10 -10 -10 -10 -10 -10 -10 -10 -10 -9 -10 -9 -9 -9 -10 -10 -10 -11 -11 -11 -11 -12 -12 -12 -12 -12 -13 -13 -14 -14
-11 -11 -11 -10 -10 -11 -10 -10 -10 -10 -9 -9 -9 -10 -10 -10 -10 -10 -11 -11 -11 -10 -10 -10 -10 -10 -10 -10 -10 -10 -10 -10 -11 -11 -11 -12 -12 -12 -12 -12 -13 -13 -14 -14
-11 -11 -11 -10 -10 -10 -10 -11 -11 -10 -10 -9 -10 -10 -10 -10 -10 -10 -10 -10 -11 -10 -11 -11 -10 -10 -10 -10 -11 -11 -11 -11 -11 -11 -12 -12 -12 -12 -12 -12 -13 -13 -14 -14
-12 -12 -11 -11 -11 -11 -10 -10 -10 -10 -10 -10 -10 -10 -10 -10 -10 -10 -11 -11 -11 -11 -11 -11 -10 -10 -10 -11 -11 -11 -11 -11 -11 -11 -12 -12 -12 -12 -12 -12 -13 -13 -14 -14
-12 -11 -11 -11 -11 -10 -10 -10 -10 -11 -10 -10 -10 -10 -10 -10 -10 -10 -10 -11 -11 -11 -11 -11 -11 -11 -11 -11 -11 -11 -11 -11 -11 -12 -12 -12 -12 -13 -13 -13 -13 -13 -14 -14
-11 -11 -11 -10 -10 -10 -10 -10 -10 -10 -10 -11 -11 -11 -10 -10 -10 -10 -11 -11 -11 -11 -12 -12 -11 -11 -11 -11 -11 -11 -11 -12 -12 -12 -13 -13 -13 -13 -13 -14 -14 -14 -14 -14
-12 -11 -11 -11 -11 -11 -11 -10 -10 -10 -11 -11 -11 -10 -10 -10 -10 -11 -11 -11 -12 -12 -12 -11 -11 -11 -11 -11 -11 -11 -11 -12 -12 -13 -13 -13 -13 -13 -13 -14 -14 -14 -14 -14
-11 -11 -11 -11 -11 -10 -11 -11 -11 -11 -11 -11 -10 -10 -10 -10 -10 -11 -11 -11 -11 -11 -11 -11 -11 -11 -11 -11 -11 -11 -12 -12 -12 -13 -13 -13 -13 -13 -13 -14 -14 -14 -14 -15
-12 -11 -11 -11 -10 -10 -11 -11 -11 -11 -11 -11 -11 -11 -10 -10 -11 -11 -11 -11 -11 -11 -11 -11 -11 -11 -11 -11 -11 -12 -12 -12 -13 -13 -13 -13 -13 -13 -14 -14 -15 -14 -14 -15
-12 -11 -11 -11 -10 -10 -10 -11 -10 -10 -10 -11 -10 -11 -11 -11 -11 -11 -11 -11 -11 -12 -12 -11 -11 -11 -11 -11 -12 -12 -12 -13 -13 -13 -14 -14 -14 -13 -14 -14 -15 -15 -15 -15
-11 -11 -11 -11 -11 -11 -11 -11 -11 -10 -11 -11 -11 -12 -12 -11 -11 -11 -11 -11 -12 -12 -12 -11 -11 -11 -11 -12 -12 -12 -13 -13 -13 -13 -14 -14 -14 -14 -14 -15 -15 -15 -15 -15
Height
5867 5874 5877 5882 5886 5886 5890 5890 5889 5892 5895 5895 5894 5895 5895 5894 5893 5892 5892 5889 5887 5883 5878 5874 5870 5865 5861 5858 5857 5852 5848 5845 5840 5835 5830 5825 5819 5813 5808 5803 5798 5793 5787 5781
5866 5872 5877 5879 5882 5885 5888 5888 5891 5893 5894 5896 5895 5897 5895 5892 5891 5890 5889 5887 5884 5882 5878 5874 5869 5864 5860 5858 5854 5850 5844 5840 5835 5830 5826 5821 5815 5809 5803 5799 5793 5787 5781 5774
5864 5873 5872 5875 5879 5883 5885 5887 5890 5893 5893 5892 5892 5892 5891 5889 5887 5885 5884 5884 5881 5877 5874 5871 5868 5862 5856 5854 5850 5846 5840 5837 5833 5826 5821 5816 5811 5804 5799 5794 5788 5781 5773 5766
5860 5866 5868 5871 5875 5879 5882 5887 5888 5887 5887 5887 5887 5886 5887 5886 5885 5884 5880 5877 5874 5872 5867 5862 5860 5859 5852 5849 5845 5842 5836 5833 5829 5825 5818 5811 5805 5800 5794 5788 5781 5774 5767 5760
5859 5861 5866 5867 5873 5875 5882 5883 5883 5882 5881 5880 5882 5880 5883 5881 5881 5879 5876 5872 5867 5860 5856 5854 5854 5854 5848 5845 5841 5837 5833 5829 5825 5819 5812 5805 5800 5794 5788 5782 5774 5769 5762 5754
5848 5853 5856 5863 5869 5872 5879 5878 5878 5877 5876 5874 5877 5876 5879 5877 5877 5876 5873 5868 5862 5852 5844 5849 5852 5850 5845 5840 5838 5833 5828 5826 5821 5812 5807 5801 5795 5790 5784 5777 5771 5764 5756 5748
5844 5846 5853 5859 5862 5866 5866 5871 5870 5871 5871 5873 5873 5870 5872 5874 5873 5873 5870 5865 5859 5854 5849 5848 5848 5845 5841 5837 5833 5829 5825 5821 5816 5808 5802 5798 5792 5787 5781 5773 5767 5760 5751 5743
5838 5842 5848 5853 5856 5862 5863 5865 5866 5865 5869 5870 5866 5865 5869 5870 5870 5867 5865 5861 5857 5853 5850 5847 5845 5841 5837 5834 5829 5825 5821 5815 5809 5805 5799 5794 5789 5783 5776 5768 5762 5754 5746 5738
5833 5839 5844 5848 5854 5859 5859 5859 5865 5863 5863 5861 5862 5863 5867 5865 5864 5861 5859 5857 5855 5852 5850 5844 5840 5836 5834 5829 5825 5820 5816 5810 5805 5801 5796 5789 5784 5777 5771 5765 5757 5750 5742 5733
5828 5834 5838 5842 5845 5849 5854 5860 5859 5858 5857 5856 5857 5859 5863 5861 5859 5857 5856 5855 5852 5848 5842 5837 5834 5832 5829 5826 5820 5816 5811 5807 5801 5797 5790 5785 5779 5773 5768 5762 5754 5746 5738 5730
5822 5828 5832 5835 5839 5846 5849 5851 5854 5855 5854 5851 5851 5855 5858 5859 5857 5853 5853 5850 5848 5843 5838 5833 5830 5827 5825 5821 5815 5811 5807 5804 5797 5791 5785 5779 5774 5769 5764 5757 5750 5742 5733 5726
5818 5823 5826 5831 5836 5840 5843 5847 5849 5848 5850 5846 5846 5850 5851 5854 5854 5850 5850 5848 5844 5839 5833 5829 5826 5824 5820 5815 5810 5807 5804 5799 5792 5785 5779 5773 5771 5766 5760 5753 5746 5738 5730 5722
5812 5816 5821 5825 5831 5834 5839 5844 5845 5845 5843 5842 5840 5844 5847 5848 5848 5846 5845 5845 5840 5837 5831 5826 5822 5819 5813 5810 5806 5804 5799 5793 5787 5779 5775 5771 5769 5763 5756 5750 5743 5734 5726 5718
5806 5811 5817 5822 5829 5832 5834 5838 5839 5840 5837 5838 5836 5837 5839 5841 5842 5841 5839 5839 5835 5832 5827 5822 5818 5813 5809 5806 5802 5798 5793 5787 5781 5776 5772 5769 5764 5759 5753 5747 5739 5731 5723 5715
5800 5806 5812 5817 5822 5825 5829 5832 5833 5834 5834 5831 5833 5833 5835 5835 5835 5835 5834 5831 5829 5826 5821 5817 5812 5806 5803 5801 5796 5791 5785 5781 5777 5773 5769 5765 5760 5754 5749 5742 5735 5727 5720 5712
5796 5802 5808 5813 5817 5820 5822 5825 5827 5827 5828 5828 5830 5829 5830 5830 5830 5830 5827 5825 5821 5818 5814 5810 5806 5801 5798 5795 5789 5783 5779 5777 5774 5770 5766 5762 5757 5751 5745 5738 5731 5724 5717 5709
5794 5799 5804 5809 5813 5816 5817 5819 5821 5823 5823 5826 5825 5825 5826 5826 5825 5823 5822 5818 5813 5811 5807 5802 5800 5795 5791 5788 5782 5779 5777 5774 5770 5767 5762 5758 5752 5747 5741 5735 5728 5721 5714 5707
5791 5796 5800 5804 5807 5807 5814 5813 5816 5817 5818 5821 5823 5823 5823 5822 5821 5820 5816 5810 5807 5805 5800 5796 5793 5789 5785 5781 5778 5777 5774 5769 5766 5762 5758 5753 5748 5743 5738 5732 5724 5718 5711 5704
5790 5793 5795 5799 5802 5805 5806 5807 5809 5811 5814 5816 5819 5819 5817 5816 5814 5812 5808 5802 5799 5797 5793 5789 5785 5782 5779 5777 5775 5773 5769 5765 5762 5757 5753 5749 5744 5739 5733 5727 5721 5715 5707 5701
5786 5789 5793 5795 5796 5797 5801 5804 5804 5806 5808 5814 5814 5812 5811 5808 5804 5801 5795 5793 5791 5789 5786 5784 5780 5777 5775 5774 5771 5767 5764 5761 5758 5753 5749 5745 5741 5736 5730 5724 5717 5710 5703 5697
5781 5784 5786 5790 5792 5794 5796 5797 5799 5803 5810 5809 5810 5808 5806 5804 5800 5793 5790 5789 5786 5784 5781 5778 5777 5775 5772 5769 5766 5763 5760 5757 5753 5749 5745 5741 5736 5731 5725 5719 5712 5706 5700 5694
5775 5779 5781 5784 5787 5791 5792 5794 5798 5802 5803 5804 5805 5804 5801 5799 5795 5790 5787 5786 5783 5781 5778 5774 5772 5769 5766 5763 5762 5759 5756 5752 5748 5745 5740 5736 5732 5727 5720 5713 5707 5701 5695 5690
5771 5774 5778 5781 5783 5787 5789 5790 5792 5795 5796 5799 5800 5798 5796 5793 5789 5787 5785 5782 5780 5777 5773 5769 5767 5764 5761 5759 5757 5754 5751 5747 5743 5740 5737 5732 5727 5721 5716 5709 5702 5697 5691 5685
5765 5769 5772 5777 5780 5781 5784 5786 5787 5789 5792 5794 5793 5791 5790 5787 5785 5783 5781 5778 5774 5772 5768 5765 5762 5759 5757 5755 5752 5749 5746 5742 5739 5736 5733 5729 5723 5717 5711 5704 5698 5692 5686 5681
5761 5765 5768 5772 5775 5778 5781 5783 5785 5786 5788 5788 5787 5785 5783 5782 5781 5779 5775 5772 5768 5765 5763 5760 5757 5755 5753 5750 5748 5746 5742 5738 5735 5732 5728 5723 5718 5712 5705 5698 5692 5687 5681 5676
5756 5761 5765 5768 5770 5774 5777 5781 5783 5784 5785 5784 5782 5780 5779 5779 5776 5774 5770 5766 5762 5760 5758 5755 5753 5751 5749 5746 5744 5740 5737 5734 5731 5727 5723 5718 5713 5707 5699 5693 5687 5681 5675 5670
Wind_Speed
40 39 36 30 29 27 20 18 12 14 18 1 0 4 16 13 13 15 18 17 16 16 20 23 26 26 26 25 25 25 28 31 29 31 33 32 33 32 32 34 35 37 39 41
40 36 37 34 32 30 24 22 21 19 18 15 7 8 13 16 17 16 19 16 13 19 18 22 24 20 21 26 26 25 29 30 33 32 35 35 35 35 36 36 37 39 40 41
37 35 41 38 36 31 27 23 20 21 20 25 19 14 14 18 24 25 25 20 29 27 18 23 26 22 19 22 24 27 30 31 31 32 33 35 36 36 37 38 39 39 40 41
39 39 42 40 38 33 31 26 21 26 22 24 24 26 16 22 28 29 29 31 34 30 41 29 34 22 20 21 23 25 29 30 31 31 32 34 36 37 37 37 37 38 38 38
34 39 42 42 36 33 27 21 20 22 25 28 25 30 20 21 25 25 27 29 29 39 37 26 20 23 17 20 22 24 28 29 29 30 31 34 35 35 35 35 35 35 36 36
37 38 44 43 38 34 24 24 32 32 31 31 24 26 17 18 23 20 25 35 39 35 20 9 17 21 17 18 23 23 26 29 28 29 32 33 34 33 34 34 34 35 36 37
34 40 41 41 40 34 34 29 31 31 35 32 25 29 22 18 23 20 26 28 31 23 7 12 20 18 19 20 22 24 25 26 27 27 29 33 33 33 34 34 35 34 35 37
37 41 43 44 44 40 35 33 33 33 33 26 30 33 22 19 23 22 23 21 26 31 32 24 23 20 20 20 20 22 25 25 26 27 28 30 31 33 33 34 35 34 34 37
37 34 34 38 38 42 40 40 30 30 28 31 29 27 20 21 22 24 22 25 28 32 25 31 25 22 20 19 20 22 26 25 26 28 30 30 30 31 32 34 35 34 34 36
31 30 30 32 35 39 40 32 31 31 29 33 28 25 21 22 25 22 22 22 23 26 29 28 24 22 19 19 20 22 25 25 26 28 29 30 30 31 32 35 35 34 34 35
31 29 30 30 32 33 34 31 24 24 29 30 32 30 24 23 24 25 24 23 25 32 31 27 23 21 20 19 20 23 26 26 26 28 28 30 31 31 32 33 35 35 34 35
27 30 28 31 28 30 35 33 26 32 30 28 30 31 25 24 26 28 26 24 24 31 30 27 24 24 23 19 21 23 26 26 26 27 29 30 31 31 32 32 35 35 35 36
27 30 30 31 30 30 30 28 30 29 31 33 30 30 25 25 25 30 31 25 25 31 29 26 28 27 24 21 22 25 25 25 26 28 30 31 31 32 32 33 34 35 36 36
19 19 27 27 24 26 30 30 29 31 34 29 28 27 27 22 26 30 32 29 29 28 28 27 30 29 24 21 23 24 24 25 26 28 31 32 32 32 32 34 34 35 37 37
26 20 20 21 25 27 32 33 29 30 28 30 31 29 26 24 26 30 33 33 28 24 29 32 31 27 23 22 23 24 24 25 27 29 32 32 32 31 31 34 34 34 35 36
28 24 17 20 25 33 35 34 32 33 32 35 30 27 24 25 27 30 37 37 40 37 34 34 29 27 23 23 23 24 24 26 28 30 31 32 31 29 31 34 34 33 33 35
29 27 24 23 29 35 36 33 34 33 35 32 27 28 34 32 34 35 34 39 41 37 37 31 29 27 24 24 23 25 25 26 27 29 30 30 29 30 30 33 34 33 33 33
27 27 27 26 27 40 34 37 37 38 37 35 31 27 26 28 32 35 41 38 33 33 28 25 26 27 24 23 22 26 25 25 26 29 29 29 27 27 30 34 33 31 32 33
25 23 23 23 22 34 40 43 42 42 39 36 32 32 31 35 33 33 38 49 45 34 24 25 25 26 24 24 25 24 24 24 26 28 28 26 26 28 32 32 31 31 32 32
33 32 30 26 23 24 31 40 46 44 41 31 28 27 30 36 39 38 42 36 36 22 20 24 26 27 26 25 25 24 23 24 26 26 26 26 24 27 30 32 31 31 33 30
35 33 32 25 20 21 26 35 42 41 33 31 29 27 29 26 24 21 22 25 28 24 22 24 29 26 27 24 22 22 23 23 24 25 24 23 23 29 37 35 31 33 32 29
41 40 35 27 22 19 18 27 31 29 27 28 25 28 26 22 19 19 19 20 23 23 25 27 27 26 25 23 21 21 22 23 24 24 24 22 27 34 32 33 35 33 30 28
37 39 36 30 27 22 22 21 23 23 26 26 24 24 21 20 19 22 24 25 28 30 27 26 26 24 21 21 20 21 22 23 24 23 23 24 30 30 33 36 31 29 28 28
37 34 31 29 27 22 23 20 18 22 21 15 14 13 17 20 23 27 27 28 27 27 25 26 23 20 19 22 22 21 22 25 24 23 21 27 29 30 33 32 31 31 29 28
34 29 28 25 24 25 21 18 15 16 15 15 13 16 21 25 27 28 27 27 26 24 24 23 20 19 23 22 21 20 22 24 24 20 23 25 30 33 35 32 31 30 29 28
35 29 25 23 20 18 18 13 10 15 15 16 17 18 22 25 27 27 26 23 21 21 22 21 21 22 21 21 20 21 23 24 23 22 26 30 34 38 36 31 32 28 29 28
Wind_Direction
217 205 211 211 225 242 254 253 272 279 286 226 86 286 286 275 248 281 297 292 338 344 325 330 334 332 336 330 326 333 332 327 335 333 328 326 325 325 324 324 320 320 322 323
218 210 203 204 221 228 236 236 239 243 255 242 215 273 274 288 277 287 308 319 316 320 310 312 321 324 323 315 318 326 327 331 334 331 330 329 326 325 324 323 320 321 321 323
220 209 205 206 219 222 225 235 253 266 268 268 260 247 279 287 300 310 311 309 311 298 285 286 293 306 311 309 314 327 328 331 331 330 330 332 328 327 326 324 320 323 326 327
219 212 210 214 214 218 224 238 253 261 268 271 269 271 266 280 290 303 309 316 310 296 318 269 270 292 299 308 310 319 323 330 328 327 332 333 330 331 329 327 329 330 328 329
211 215 215 217 218 221 224 236 242 249 251 261 264 272 288 305 302 299 312 346 334 332 318 253 269 296 298 304 308 312 321 326 325 327 334 334 333 334 331 331 333 330 331 332
211 211 211 214 217 230 220 234 236 245 248 256 264 280 289 299 300 307 332 338 337 336 313 255 307 291 289 303 306 311 320 322 325 334 336 333 335 335 333 335 334 334 335 336
217 212 210 212 221 210 216 225 238 246 251 266 268 274 289 304 299 301 323 335 347 353 356 338 314 287 294 300 301 309 318 318 326 333 333 332 336 335 336 339 337 335 335 338
220 217 212 214 222 214 220 228 241 252 262 267 262 269 288 305 300 294 312 329 327 339 345 336 317 293 294 297 308 312 310 319 325 325 325 327 332 333 335 337 337 335 339 341
223 222 224 221 226 223 224 232 246 257 269 266 268 284 286 291 295 299 317 332 320 316 319 329 320 298 299 302 305 311 312 322 320 323 325 329 333 333 336 335 337 337 339 343
218 221 225 221 220 221 226 239 244 249 265 269 265 272 273 280 287 304 323 328 333 335 325 318 316 302 297 296 307 311 316 317 321 324 331 332 335 336 336 335 337 338 339 344
214 211 219 222 222 223 227 235 244 254 261 267 261 268 275 275 290 301 316 309 319 335 329 325 314 303 294 301 309 316 314 314 323 327 334 335 336 334 334 336 337 337 340 344
215 211 216 220 222 220 226 235 243 253 258 266 267 266 271 278 287 290 298 312 317 332 326 322 314 309 303 307 312 312 308 316 325 332 335 337 332 331 334 335 338 337 340 344
208 210 206 216 221 229 234 237 243 248 257 263 265 270 277 282 285 287 298 309 311 320 328 321 320 315 314 310 305 300 310 321 328 335 334 332 331 332 334 335 336 338 341 344
202 206 216 224 227 228 232 239 230 242 252 262 264 266 268 273 281 286 295 308 303 312 328 323 322 321 309 301 298 306 317 325 330 333 329 330 331 333 335 333 337 339 343 344
198 209 217 214 210 220 224 229 237 242 253 262 270 273 283 268 277 278 288 300 304 315 328 323 321 320 311 304 303 314 324 328 328 328 328 328 329 333 333 334 337 342 341 341
197 212 206 215 212 214 225 231 234 244 251 260 277 282 283 269 274 277 282 291 297 307 321 317 317 318 312 310 315 325 328 325 323 325 325 327 328 332 334 336 337 342 340 340
203 212 211 212 211 211 225 232 238 244 254 260 276 289 282 281 285 289 290 294 296 304 307 311 312 317 317 318 325 328 322 319 321 323 325 327 329 333 336 337 337 341 339 340
215 215 215 214 218 221 225 231 236 245 252 260 272 278 290 294 297 296 294 283 295 308 305 309 313 316 320 323 326 315 315 317 320 323 326 327 330 332 336 336 337 339 338 341
212 221 228 234 241 240 233 232 239 246 255 258 273 283 304 305 296 312 283 279 290 306 300 306 307 315 319 319 315 314 315 318 322 323 325 326 328 331 336 336 337 338 338 340
218 221 229 237 249 241 236 235 240 248 257 270 279 294 298 305 302 297 300 291 289 290 296 306 312 318 316 310 311 314 317 321 321 322 322 324 327 333 335 334 333 339 336 338
233 241 245 246 244 250 241 235 240 248 265 269 277 296 296 291 317 315 295 295 283 296 289 305 311 313 311 310 312 315 316 317 317 319 319 321 327 328 333 337 330 336 333 336
235 241 246 250 245 254 257 243 247 250 254 258 269 287 278 289 307 326 328 319 320 311 308 314 314 311 310 310 312 313 313 314 317 318 319 319 321 328 334 336 327 328 332 335
230 234 240 247 251 242 248 261 247 241 251 257 268 277 272 291 310 312 312 311 309 310 311 313 315 313 309 312 315 313 311 314 316 318 314 319 328 331 332 332 332 332 334 332
230 234 241 249 254 254 244 258 250 233 247 251 270 287 291 297 308 310 312 308 305 305 309 312 313 314 318 315 312 311 313 315 317 316 314 319 324 330 331 329 327 328 331 331
228 238 240 248 258 251 243 263 265 245 242 247 268 291 304 302 304 310 308 301 299 300 303 310 310 310 309 308 310 312 315 316 314 307 312 318 327 331 334 327 323 325 328 328
229 230 240 245 253 255 249 235 257 243 236 251 272 288 293 301 307 307 306 309 303 297 302 304 305 310 310 311 314 316 316 313 310 296 305 315 321 327 331 319 320 325 326 326